Hourly Data Report for October 27, 2016

All times are specified in Local Standard Time (LST). Add 1 hour to adjust for Daylight Saving Time where and when it is observed.

BAKER LAKE A
NUNAVUT

64°17'56.000" N
96°04'40.000" W
18.60 m
2300503
71926
YBK

Download Data

Hourly Data (October 2016)
Hourly Data Report for October 27, 2016
Temp Definition
°C
Dew Point Temp Definition
°C
Rel Hum Definition
%
Wind Dir Definition
10's deg

Wind Spd Definition
km/h
Visibility Definition
km
Stn Press Definition
kPa
Hmdx Definition


Wind Chill Definition


Weather Definition


TIME
00:00 Legend Double Dagger -5.0 -6.4 90 25 15 24.1 101.63   -11 Snow
01:00 Legend Double Dagger -5.0 -6.4 90 20 9 24.1 101.61   -9 Snow
02:00 Legend Double Dagger -4.8 -6.2 90 26 11 24.1 101.59   -9 LegendNANA
03:00 Legend Double Dagger -4.9 -6.3 90 28 5 24.1 101.56   -7 Snow
04:00 Legend Double Dagger -4.9 -6.3 90 29 6 24.1 101.53   -8 Snow
05:00 Legend Double Dagger -4.9 -6.3 90 31 8 24.1 101.51   -8 Snow
06:00 Legend Double Dagger -4.7 -6.0 91 36 2 4.0 101.50   -6 Snow,Fog
07:00 Legend Double Dagger -5.1 -6.5 90 34 7 6.4 101.50   -8 Snow,Fog
08:00 Legend Double Dagger -5.3 -6.7 90 36 9 4.8 101.50   -9 Snow
09:00 Legend Double Dagger -5.8 -7.2 90 35 12 6.4 101.49   -11 Snow
10:00 Legend Double Dagger -7.0 -8.5 89 35 16 16.1 101.48   -13 Snow
11:00 Legend Double Dagger -6.8 -9.1 84 4 13 16.1 101.50   -12 Snow
12:00 Legend Double Dagger -7.2 -9.3 85 2 13 9.7 101.49   -13 Snow
13:00 Legend Double Dagger -7.5 -9.9 83 2 16 9.7 101.48   -14 Snow
14:00 Legend Double Dagger -8.8 -11.2 83 36 13 16.1 101.51   -15 Snow
15:00 Legend Double Dagger -10.8 -13.5 81 36 22 24.1 101.56   -19 Snow
16:00 Legend Double Dagger -12.2 -15.0 80 36 15 32.2 101.59   -19 LegendNANA
17:00 Legend Double Dagger -14.7 -17.6 79 34 10 32.2 101.62   -21 LegendNANA
18:00 Legend Double Dagger -15.0 -18.8 73 34 12 24.1 101.62   -22 Mainly Clear
19:00 Legend Double Dagger -16.5 -20.3 73 35 18 24.1 101.67   -26 LegendNANA
20:00 Legend Double Dagger -15.8 -20.8 66 34 22 24.1 101.72   -26 LegendNANA
21:00 Legend Double Dagger -17.3 -21.2 72 34 13 24.1 101.73   -25 Clear
22:00 Legend Double Dagger -17.9 -21.6 73 35 22 24.1 101.77   -28 LegendNANA
23:00 Legend Double Dagger -17.7 -21.8 71 33 24 24.1 101.79   -28 LegendNANA

Notes on Data Quality.

Legend

  • E = Estimated
  • M = Missing
  • NA = Not Available
  • ‡ = Partner data that is not subject to review by the National Climate Archives
Date modified: